Location: Allos
(44.2333°N, 6.6333°E)
Time: 23:08:54
(UTC+00:00)

Cosmos 1821 Rocket - Pass Details

Date: 23 April 2021
Orbit: 946 x 1003 km, 82.9° (Epoch: 16 May)

Event Time Altitude Azimuth Distance (km) Brightness Sun altitude
Rises 00:19:46 0° 0° (N) 3,710 8.1 -32.2°
Reaches altitude 10° 00:22:42 10° 12° (NNE) 2,765 7.2 -32.1°
Maximum altitude 00:28:05 28° 70° (ENE) 1,769 5.6 -31.8°
Enters shadow 00:30:30 22° 105° (ESE) 2,013 5.6 -31.7°
